Time,TemperatureF,DewpointF,PressureIn,WindDirection,WindDirectionDegrees,WindSpeedMPH,WindSpeedGustMPH,Humidity,HourlyPrecipIn,Conditions,Clouds,dailyrainin,SolarRadiationWatts/m^2,SoftwareType,DateUTC
2013-01-03 00:02:00,15.0,-1.0,-100.00,East,88,4.0,10.0,49,0.00,,,0.00,0.000000,,2013-01-03 07:02:00,
2013-01-03 00:12:00,15.0,-1.0,-100.00,East,88,4.0,10.0,49,0.00,,,0.00,0.000000,,2013-01-03 07:12:00,
2013-01-03 00:22:00,15.0,-1.0,-100.00,East,88,4.0,10.0,49,0.00,,,0.00,0.000000,,2013-01-03 07:22:00,
2013-01-03 00:32:00,15.0,-1.0,-100.00,East,88,4.0,10.0,49,0.00,,,0.00,0.000000,,2013-01-03 07:32:00,
2013-01-03 00:42:00,15.0,-1.0,-100.00,East,88,4.0,10.0,49,0.00,,,0.00,0.000000,,2013-01-03 07:42:00,
2013-01-03 01:02:00,15.0,0.0,-100.00,ENE,58,5.0,15.0,50,0.00,,,0.00,0.000000,,2013-01-03 08:02:00,
2013-01-03 01:12:00,15.0,0.0,-100.00,ENE,58,5.0,15.0,50,0.00,,,0.00,0.000000,,2013-01-03 08:12:00,
2013-01-03 01:22:00,15.0,0.0,-100.00,ENE,58,5.0,15.0,50,0.00,,,0.00,0.000000,,2013-01-03 08:22:00,
2013-01-03 01:32:00,15.0,0.0,-100.00,ENE,58,5.0,15.0,50,0.00,,,0.00,0.000000,,2013-01-03 08:32:00,
2013-01-03 01:42:00,15.0,0.0,-100.00,ENE,58,5.0,15.0,50,0.00,,,0.00,0.000000,,2013-01-03 08:42:00,
2013-01-03 02:02:00,15.0,-1.0,-100.00,NNE,24,4.0,11.0,48,0.00,,,-99.99,0.000000,,2013-01-03 09:02:00,
2013-01-03 02:12:00,15.0,-1.0,-100.00,NNE,24,4.0,11.0,48,0.00,,,-99.99,0.000000,,2013-01-03 09:12:00,
2013-01-03 02:22:00,15.0,-1.0,-100.00,NNE,24,4.0,11.0,48,0.00,,,-99.99,0.000000,,2013-01-03 09:22:00,
2013-01-03 02:33:00,15.0,-1.0,-100.00,NNE,24,4.0,11.0,48,0.00,,,-99.99,0.000000,,2013-01-03 09:33:00,
2013-01-03 02:42:00,15.0,-1.0,-100.00,NNE,24,4.0,11.0,48,0.00,,,-99.99,0.000000,,2013-01-03 09:42:00,
2013-01-03 03:02:00,15.0,-2.0,-100.00,NE,42,5.0,11.0,46,0.00,,,0.00,0.000000,,2013-01-03 10:02:00,
2013-01-03 03:12:00,15.0,-2.0,-100.00,NE,42,5.0,11.0,46,0.00,,,0.00,0.000000,,2013-01-03 10:12:00,
2013-01-03 03:22:00,15.0,-2.0,-100.00,NE,42,5.0,11.0,46,0.00,,,0.00,0.000000,,2013-01-03 10:22:00,
2013-01-03 03:32:00,15.0,-2.0,-100.00,NE,42,5.0,11.0,46,0.00,,,0.00,0.000000,,2013-01-03 10:32:00,
2013-01-03 03:42:00,15.0,-2.0,-100.00,NE,42,5.0,11.0,46,0.00,,,0.00,0.000000,,2013-01-03 10:42:00,
2013-01-03 04:02:00,13.0,-3.0,-100.00,ENE,60,3.0,11.0,48,0.00,,,0.00,0.000000,,2013-01-03 11:02:00,
2013-01-03 04:12:00,13.0,-3.0,-100.00,ENE,60,3.0,11.0,48,0.00,,,0.00,0.000000,,2013-01-03 11:12:00,
2013-01-03 04:22:00,13.0,-3.0,-100.00,ENE,60,3.0,11.0,48,0.00,,,0.00,0.000000,,2013-01-03 11:22:00,
2013-01-03 04:33:00,13.0,-3.0,-100.00,ENE,60,3.0,11.0,48,0.00,,,0.00,0.000000,,2013-01-03 11:33:00,
2013-01-03 04:42:00,13.0,-3.0,-100.00,ENE,60,3.0,11.0,48,0.00,,,0.00,0.000000,,2013-01-03 11:42:00,
2013-01-03 05:02:00,11.0,-4.0,-100.00,SE,132,3.0,7.0,51,0.00,,,0.00,0.000000,,2013-01-03 12:02:00,
2013-01-03 05:12:00,11.0,-4.0,-100.00,SE,132,3.0,7.0,51,0.00,,,0.00,0.000000,,2013-01-03 12:12:00,
2013-01-03 05:22:00,11.0,-4.0,-100.00,SE,132,3.0,7.0,51,0.00,,,0.00,0.000000,,2013-01-03 12:22:00,
2013-01-03 05:32:00,11.0,-4.0,-100.00,SE,132,3.0,7.0,51,0.00,,,0.00,0.000000,,2013-01-03 12:32:00,
2013-01-03 05:42:00,11.0,-4.0,-100.00,SE,132,3.0,7.0,51,0.00,,,0.00,0.000000,,2013-01-03 12:42:00,
2013-01-03 06:02:00,9.0,-5.0,-100.00,ENE,58,1.0,6.0,51,0.00,,,0.00,0.000000,,2013-01-03 13:02:00,
2013-01-03 06:12:00,9.0,-5.0,-100.00,ENE,58,1.0,6.0,51,0.00,,,0.00,0.000000,,2013-01-03 13:12:00,
2013-01-03 06:22:00,9.0,-5.0,-100.00,ENE,58,1.0,6.0,51,0.00,,,0.00,0.000000,,2013-01-03 13:22:00,
2013-01-03 06:32:00,9.0,-5.0,-100.00,ENE,58,1.0,6.0,51,0.00,,,0.00,0.000000,,2013-01-03 13:32:00,
2013-01-03 06:42:00,9.0,-5.0,-100.00,ENE,58,1.0,6.0,51,0.00,,,0.00,0.000000,,2013-01-03 13:42:00,
2013-01-03 07:02:00,9.0,-5.0,-100.00,East,83,4.0,6.0,52,0.00,,,0.00,0.000000,,2013-01-03 14:02:00,
2013-01-03 07:12:00,9.0,-5.0,-100.00,East,83,4.0,6.0,52,0.00,,,0.00,0.000000,,2013-01-03 14:12:00,
2013-01-03 07:22:00,9.0,-5.0,-100.00,East,83,4.0,6.0,52,0.00,,,0.00,0.000000,,2013-01-03 14:22:00,
2013-01-03 07:32:00,9.0,-5.0,-100.00,East,83,4.0,6.0,52,0.00,,,0.00,0.000000,,2013-01-03 14:32:00,
2013-01-03 07:42:00,9.0,-5.0,-100.00,East,83,4.0,6.0,52,0.00,,,0.00,0.000000,,2013-01-03 14:42:00,
2013-01-03 08:02:00,9.0,-6.0,-100.00,NE,54,3.0,6.0,50,0.00,,,0.00,0.000000,,2013-01-03 15:02:00,
2013-01-03 08:12:00,9.0,-6.0,-100.00,NE,54,3.0,6.0,50,0.00,,,0.00,0.000000,,2013-01-03 15:12:00,
2013-01-03 08:22:00,9.0,-6.0,-100.00,NE,54,3.0,6.0,50,0.00,,,0.00,0.000000,,2013-01-03 15:22:00,
2013-01-03 08:33:00,9.0,-6.0,-100.00,NE,54,3.0,6.0,50,0.00,,,0.00,0.000000,,2013-01-03 15:33:00,
2013-01-03 08:42:00,9.0,-6.0,-100.00,NE,54,3.0,6.0,50,0.00,,,0.00,0.000000,,2013-01-03 15:42:00,
2013-01-03 09:03:00,19.0,-2.0,-100.00,ENE,62,2.0,5.0,39,0.00,,,0.00,8.000000,,2013-01-03 16:03:00,
2013-01-03 09:22:00,19.0,-2.0,-100.00,ENE,62,2.0,5.0,39,0.00,,,0.00,8.000000,,2013-01-03 16:22:00,
2013-01-03 09:33:00,19.0,-2.0,-100.00,ENE,62,2.0,5.0,39,0.00,,,0.00,8.000000,,2013-01-03 16:33:00,
2013-01-03 10:03:00,23.0,-2.0,-100.00,SE,133,4.0,6.0,33,0.00,,,0.00,170.000000,,2013-01-03 17:03:00,
2013-01-03 10:22:00,23.0,-2.0,-100.00,SE,133,4.0,6.0,33,0.00,,,0.00,170.000000,,2013-01-03 17:22:00,
2013-01-03 10:32:00,23.0,-2.0,-100.00,SE,133,4.0,6.0,33,0.00,,,0.00,170.000000,,2013-01-03 17:32:00,
2013-01-03 10:42:00,23.0,-2.0,-100.00,SE,133,4.0,6.0,33,0.00,,,0.00,170.000000,,2013-01-03 17:42:00,
2013-01-03 11:13:00,30.0,1.0,-100.00,SE,137,4.0,7.0,28,0.00,,,0.00,393.000000,,2013-01-03 18:13:00,
2013-01-03 11:22:00,30.0,1.0,-100.00,SE,137,4.0,7.0,28,0.00,,,0.00,393.000000,,2013-01-03 18:22:00,
2013-01-03 12:03:00,33.0,1.0,-100.00,SSE,154,4.0,7.0,25,-99.99,,,0.00,577.000000,,2013-01-03 19:03:00,
2013-01-03 13:02:00,33.0,2.0,-100.00,SSW,212,5.0,8.0,26,-99.99,,,0.00,696.000000,,2013-01-03 20:02:00,
2013-01-03 13:33:00,33.0,2.0,-100.00,SSW,212,5.0,8.0,26,-99.99,,,0.00,696.000000,,2013-01-03 20:33:00,
2013-01-03 13:42:00,33.0,2.0,-100.00,SSW,212,5.0,8.0,26,-99.99,,,0.00,696.000000,,2013-01-03 20:42:00,
2013-01-03 13:44:00,33.0,6.0,-100.00,North,357,5.0,9.0,32,0.00,,,0.00,735.000000,,2013-01-03 20:44:00,
2013-01-03 14:02:00,33.0,6.0,-100.00,North,357,5.0,9.0,32,0.00,,,0.00,735.000000,,2013-01-03 21:02:00,
2013-01-03 14:12:00,33.0,6.0,-100.00,North,357,5.0,9.0,32,0.00,,,0.00,735.000000,,2013-01-03 21:12:00,
2013-01-03 14:22:00,33.0,6.0,-100.00,North,357,5.0,9.0,32,0.00,,,0.00,735.000000,,2013-01-03 21:22:00,
2013-01-03 14:34:00,33.0,6.0,-100.00,North,357,5.0,9.0,32,0.00,,,0.00,735.000000,,2013-01-03 21:34:00,
2013-01-03 15:02:00,32.0,6.0,-100.00,West,269,4.0,9.0,33,0.00,,,0.00,695.000000,,2013-01-03 22:02:00,
2013-01-03 15:12:00,32.0,6.0,-100.00,West,269,4.0,9.0,33,0.00,,,0.00,695.000000,,2013-01-03 22:12:00,
2013-01-03 15:22:00,32.0,6.0,-100.00,West,269,4.0,9.0,33,0.00,,,0.00,695.000000,,2013-01-03 22:22:00,
2013-01-03 15:32:00,32.0,6.0,-100.00,West,269,4.0,9.0,33,0.00,,,0.00,695.000000,,2013-01-03 22:32:00,
2013-01-03 15:42:00,32.0,6.0,-100.00,West,269,4.0,9.0,33,0.00,,,0.00,695.000000,,2013-01-03 22:42:00,
2013-01-03 16:12:00,31.0,5.0,-100.00,NE,46,4.0,8.0,32,0.00,,,0.00,577.000000,,2013-01-03 23:12:00,
2013-01-03 16:22:00,31.0,5.0,-100.00,NE,46,4.0,8.0,32,0.00,,,0.00,577.000000,,2013-01-03 23:22:00,
2013-01-03 16:32:00,31.0,5.0,-100.00,NE,46,4.0,8.0,32,0.00,,,0.00,577.000000,,2013-01-03 23:32:00,
2013-01-03 16:42:00,31.0,5.0,-100.00,NE,46,4.0,8.0,32,0.00,,,0.00,577.000000,,2013-01-03 23:42:00,
2013-01-03 17:03:00,27.0,5.0,-100.00,NW,316,3.0,7.0,39,0.00,,,0.00,397.000000,,2013-01-04 00:03:00,
2013-01-03 17:12:00,27.0,5.0,-100.00,NW,316,3.0,7.0,39,0.00,,,0.00,397.000000,,2013-01-04 00:12:00,
2013-01-03 17:22:00,27.0,5.0,-100.00,NW,316,3.0,7.0,39,0.00,,,0.00,397.000000,,2013-01-04 00:22:00,
2013-01-03 17:32:00,27.0,5.0,-100.00,NW,316,3.0,7.0,39,0.00,,,0.00,397.000000,,2013-01-04 00:32:00,
2013-01-03 17:42:00,27.0,5.0,-100.00,NW,316,3.0,7.0,39,0.00,,,0.00,397.000000,,2013-01-04 00:42:00,
2013-01-03 18:02:00,19.0,5.0,-100.00,SSW,192,4.0,5.0,54,0.00,,,0.00,178.000000,,2013-01-04 01:02:00,
2013-01-03 18:12:00,19.0,5.0,-100.00,SSW,192,4.0,5.0,54,0.00,,,0.00,178.000000,,2013-01-04 01:12:00,
2013-01-03 18:22:00,19.0,5.0,-100.00,SSW,192,4.0,5.0,54,0.00,,,0.00,178.000000,,2013-01-04 01:22:00,
2013-01-03 18:32:00,19.0,5.0,-100.00,SSW,192,4.0,5.0,54,0.00,,,0.00,178.000000,,2013-01-04 01:32:00,
2013-01-03 18:42:00,19.0,5.0,-100.00,SSW,192,4.0,5.0,54,0.00,,,0.00,178.000000,,2013-01-04 01:42:00,
2013-01-03 19:02:00,17.0,6.0,-100.00,NW,318,2.0,5.0,61,0.00,,,0.00,11.000000,,2013-01-04 02:02:00,
2013-01-03 19:12:00,17.0,6.0,-100.00,NW,318,2.0,5.0,61,0.00,,,0.00,11.000000,,2013-01-04 02:12:00,
2013-01-03 19:22:00,17.0,6.0,-100.00,NW,318,2.0,5.0,61,0.00,,,0.00,11.000000,,2013-01-04 02:22:00,
2013-01-03 19:32:00,17.0,6.0,-100.00,NW,318,2.0,5.0,61,0.00,,,0.00,11.000000,,2013-01-04 02:32:00,
2013-01-03 19:42:00,17.0,6.0,-100.00,NW,318,2.0,5.0,61,0.00,,,0.00,11.000000,,2013-01-04 02:42:00,
2013-01-03 20:02:00,15.0,0.0,-100.00,SW,222,3.0,8.0,51,0.00,,,0.00,0.000000,,2013-01-04 03:02:00,
2013-01-03 20:12:00,15.0,0.0,-100.00,SW,222,3.0,8.0,51,0.00,,,0.00,0.000000,,2013-01-04 03:12:00,
2013-01-03 20:22:00,15.0,0.0,-100.00,SW,222,3.0,8.0,51,0.00,,,0.00,0.000000,,2013-01-04 03:22:00,
2013-01-03 20:32:00,15.0,0.0,-100.00,SW,222,3.0,8.0,51,0.00,,,0.00,0.000000,,2013-01-04 03:32:00,
2013-01-03 20:42:00,15.0,0.0,-100.00,SW,222,3.0,8.0,51,0.00,,,0.00,0.000000,,2013-01-04 03:42:00,
2013-01-03 21:02:00,14.0,0.0,-100.00,NE,55,3.0,5.0,52,0.00,,,0.00,0.000000,,2013-01-04 04:02:00,
2013-01-03 21:12:00,14.0,0.0,-100.00,NE,55,3.0,5.0,52,0.00,,,0.00,0.000000,,2013-01-04 04:12:00,
2013-01-03 21:22:00,14.0,0.0,-100.00,NE,55,3.0,5.0,52,0.00,,,0.00,0.000000,,2013-01-04 04:22:00,
2013-01-03 21:32:00,14.0,0.0,-100.00,NE,55,3.0,5.0,52,0.00,,,0.00,0.000000,,2013-01-04 04:32:00,
2013-01-03 21:42:00,14.0,0.0,-100.00,NE,55,3.0,5.0,52,0.00,,,0.00,0.000000,,2013-01-04 04:42:00,
2013-01-03 22:03:00,14.0,-2.0,-100.00,NE,56,4.0,5.0,48,0.00,,,0.00,0.000000,,2013-01-04 05:03:00,
2013-01-03 22:12:00,14.0,-2.0,-100.00,NE,56,4.0,5.0,48,0.00,,,0.00,0.000000,,2013-01-04 05:12:00,
2013-01-03 22:22:00,14.0,-2.0,-100.00,NE,56,4.0,5.0,48,0.00,,,0.00,0.000000,,2013-01-04 05:22:00,
2013-01-03 22:33:00,14.0,-2.0,-100.00,NE,56,4.0,5.0,48,0.00,,,0.00,0.000000,,2013-01-04 05:33:00,
2013-01-03 22:42:00,14.0,-2.0,-100.00,NE,56,4.0,5.0,48,0.00,,,0.00,0.000000,,2013-01-04 05:42:00,
2013-01-03 23:02:00,12.0,-3.0,-100.00,East,89,4.0,6.0,51,0.00,,,0.00,0.000000,,2013-01-04 06:02:00,
2013-01-03 23:12:00,12.0,-3.0,-100.00,East,89,4.0,6.0,51,0.00,,,0.00,0.000000,,2013-01-04 06:12:00,
2013-01-03 23:22:00,12.0,-3.0,-100.00,East,89,4.0,6.0,51,0.00,,,0.00,0.000000,,2013-01-04 06:22:00,
2013-01-03 23:32:00,12.0,-3.0,-100.00,East,89,4.0,6.0,51,0.00,,,0.00,0.000000,,2013-01-04 06:32:00,
2013-01-03 23:42:00,12.0,-3.0,-100.00,East,89,4.0,6.0,51,0.00,,,0.00,0.000000,,2013-01-04 06:42:00,